DW9104 Weather Reports


time (UTC)temp
C
wind
direction
speed
KPH
gust
KPH
rain 1hr
cm
rain 24hr
cm
rain mn
cm
humidity
%
barometer
mb
20260502170404 16 103 0.0 0.0 0.00 0.00 0.00 62 1011.4
20260502163903 16 103 0.0 0.0 0.00 0.00 0.00 60 1011.7
20260502163404 17 103 0.0 0.0 0.00 0.00 0.00 60 1011.7
20260502162905 17 103 0.0 0.0 0.00 0.00 0.00 62 1011.7
20260502162404 17 103 0.0 0.0 0.00 0.00 0.00 61 1011.8
20260502161905 17 103 0.0 0.0 0.00 0.00 0.00 61 1011.9
20260502160907 16 103 0.0 0.0 0.00 0.00 0.00 63 1012.0
20260502160404 16 103 0.0 1.6 0.00 0.00 0.00 61 1012.0
20260502151404 17 104 0.0 3.2 0.00 0.00 0.00 60 1012.7
20260502150904 17 105 0.0 1.6 0.00 0.00 0.00 60 1012.7
20260502150404 17 221 0.0 3.2 0.00 0.00 0.00 58 1012.8
20260502130405 17 112 0.0 4.8 0.00 0.00 0.00 60 1014.3
20260502122905 17 117 0.0 1.6 0.00 0.00 0.00 61 1014.4
20260502122406 17 122 0.0 4.8 0.00 0.00 0.00 63 1014.4
20260502121905 17 121 1.6 4.8 0.00 0.00 0.00 62 1014.6
20260502121405 17 131 3.2 11.3 0.00 0.00 0.00 60 1014.6
20260502120405 17 114 0.0 3.2 0.00 0.00 0.00 62 1014.9
20260502115905 17 116 1.6 4.8 0.00 0.00 0.00 62 1015.0
20260502113905 17 127 1.6 4.8 0.00 0.00 0.00 62 1014.9
20260502112905 17 96 0.0 1.6 0.00 0.00 0.00 64 1015.0
20260502112405 17 96 0.0 3.2 0.00 0.00 0.00 64 1015.2
20260502111906 17 121 0.0 4.8 0.00 0.00 0.00 64 1015.2
20260502111406 17 113 0.0 1.6 0.00 0.00 0.00 65 1015.3
20260502110905 17 93 0.0 3.2 0.00 0.00 0.00 64 1015.5
20260502105905 16 117 0.0 4.8 0.00 0.00 0.00 66 1015.6
20260502105405 16 111 0.0 3.2 0.00 0.00 0.00 65 1015.7
20260502104906 17 112 3.2 8.0 0.00 0.00 0.00 63 1015.8
20260502104405 17 100 0.0 8.0 0.00 0.00 0.00 66 1015.8
20260502103405 16 88 0.0 4.8 0.00 0.00 0.00 70 1015.9
20260502102905 16 96 1.6 3.2 0.00 0.00 0.00 67 1016.0
20260502102405 16 99 0.0 1.6 0.00 0.00 0.00 65 1015.8
20260502101406 16 88 0.0 4.8 0.00 0.00 0.00 69 1015.8
20260502100905 16 127 0.0 1.6 0.00 0.00 0.00 70 1015.8
20260502100405 16 126 0.0 4.8 0.00 0.00 0.00 71 1016.0
20260502090405 15 113 1.6 3.2 0.00 0.00 0.00 74 1016.8
20260502071405 11 102 0.0 1.6 0.00 0.00 0.00 92 1017.2
20260502070405 10 102 0.0 1.6 0.00 0.00 0.00 97 1017.2
20260502065405 9 102 0.0 0.0 0.00 0.00 0.00 95 1017.2
20260502064905 9 102 0.0 0.0 0.00 0.00 0.00 96 1017.2
20260502064405 9 102 0.0 1.6 0.00 0.00 0.00 96 1017.3
20260502063905 9 102 0.0 1.6 0.00 0.00 0.00 97 1017.2
20260502063405 8 102 0.0 1.6 0.00 0.00 0.00 98 1017.3
20260502062905 8 102 0.0 0.0 0.00 0.00 0.00 98 1017.3
20260502062405 8 102 0.0 1.6 0.00 0.00 0.00 98 1017.3
20260502061905 8 102 0.0 1.6 0.00 0.00 0.00 98 1017.2
20260502060905 8 103 0.0 1.6 0.00 0.00 0.00 98 1017.2
20260502060405 8 105 0.0 1.6 0.00 0.00 0.00 98 1017.1
20260502055905 8 106 0.0 1.6 0.00 0.00 0.00 98 1017.2
20260502055405 8 106 0.0 1.6 0.00 0.00 0.00 98 1017.1
20260502054904 8 106 0.0 0.0 0.00 0.00 0.00 98 1017.2
20260502053905 7 106 0.0 0.0 0.00 0.00 0.00 98 1017.0
20260502052905 7 106 0.0 0.0 0.00 0.00 0.00 98 1017.0
20260502052405 7 106 0.0 1.6 0.00 0.00 0.00 98 1017.0
20260502051905 7 106 0.0 1.6 0.00 0.00 0.00 98 1017.0
20260502051405 7 106 0.0 0.0 0.00 0.00 0.00 98 1017.0
20260502050405 7 106 0.0 1.6 0.00 0.00 0.00 98 1017.1
20260502045905 7 106 0.0 1.6 0.00 0.00 0.00 98 1017.1
20260502044905 7 104 0.0 0.0 0.00 0.00 0.00 98 1017.0
20260502044405 7 104 0.0 1.6 0.00 0.00 0.00 98 1017.0
20260502043405 7 104 0.0 1.6 0.00 0.00 0.00 98 1017.0
20260502042905 7 104 0.0 1.6 0.00 0.00 0.00 98 1017.0
20260502042405 7 104 0.0 1.6 0.00 0.00 0.00 98 1017.0
20260502041905 8 104 0.0 1.6 0.00 0.00 0.00 98 1017.0
20260502041405 8 104 0.0 0.0 0.00 0.00 0.00 98 1017.0
20260502040405 8 104 0.0 1.6 0.00 0.00 0.00 98 1017.1
20260502035905 8 104 0.0 0.0 0.00 0.00 0.00 98 1017.1
20260502035412 8 104 0.0 0.0 0.00 0.00 0.00 98 1017.1
20260502034905 8 104 0.0 1.6 0.00 0.00 0.00 98 1017.1
20260502034405 8 104 0.0 1.6 0.00 0.00 0.00 98 1017.2
20260502033904 8 104 0.0 1.6 0.00 0.00 0.00 98 1017.1
20260502033405 8 103 0.0 0.0 0.00 0.00 0.00 98 1017.1
20260502032904 8 104 0.0 1.6 0.00 0.00 0.00 98 1017.1
20260502032405 8 104 0.0 1.6 0.00 0.00 0.00 98 1017.1
20260502031905 8 104 0.0 1.6 0.00 0.00 0.00 97 1017.2
20260502031404 8 104 0.0 1.6 0.00 0.00 0.00 97 1017.2
20260502030405 8 104 0.0 1.6 0.00 0.00 0.00 97 1017.2
20260502025905 8 104 0.0 0.0 0.00 0.00 0.00 97 1017.2
20260502025405 8 104 0.0 0.0 0.00 0.00 0.00 97 1017.2
20260502024904 8 103 0.0 1.6 0.00 0.00 0.00 97 1017.2
20260502024405 8 103 0.0 0.0 0.00 0.00 0.00 97 1017.2
20260502023905 8 103 0.0 0.0 0.00 0.00 0.00 97 1017.3
20260502023404 9 104 0.0 1.6 0.00 0.00 0.00 97 1017.2
20260502022905 9 103 0.0 0.0 0.00 0.00 0.00 97 1017.2
20260502022405 9 104 0.0 1.6 0.00 0.00 0.00 97 1017.3
20260502021905 9 104 0.0 0.0 0.00 0.00 0.00 96 1017.3
20260502020905 9 103 0.0 1.6 0.00 0.00 0.00 96 1017.5
20260502020405 9 103 0.0 0.0 0.00 0.00 0.00 96 1017.6
20260502015904 9 104 0.0 1.6 0.00 0.00 0.00 96 1017.6
20260502015405 9 104 0.0 1.6 0.00 0.00 0.00 96 1017.6
20260502014405 9 103 0.0 1.6 0.00 0.00 0.00 96 1017.7
20260502013905 9 103 0.0 1.6 0.00 0.00 0.00 96 1017.8
20260502012905 9 103 0.0 1.6 0.00 0.00 0.00 96 1017.8
20260502012405 9 103 0.0 1.6 0.00 0.00 0.00 96 1017.9
20260502011904 9 104 0.0 0.0 0.00 0.00 0.00 95 1017.9
20260502010906 9 103 0.0 0.0 0.00 0.00 0.00 95 1017.9
20260502010404 10 104 0.0 1.6 0.00 0.00 0.00 95 1018.0
20260502005905 10 103 0.0 0.0 0.00 0.00 0.00 94 1018.0
20260502005405 10 104 0.0 0.0 0.00 0.00 0.00 94 1018.0
20260502004405 10 103 0.0 0.0 0.00 0.00 0.00 94 1018.1
20260502003905 10 103 0.0 0.0 0.00 0.00 0.00 93 1018.1
20260502003405 10 103 0.0 0.0 0.00 0.00 0.00 93 1018.1
20260502002905 10 103 0.0 0.0 0.00 0.00 0.00 93 1018.1
20260502002404 10 103 0.0 0.0 0.00 0.00 0.00 93 1018.2
20260502001905 10 103 0.0 1.6 0.00 0.00 0.00 92 1018.2
20260502001404 10 103 0.0 1.6 0.00 0.00 0.00 92 1018.2
20260502000905 11 103 0.0 1.6 0.00 0.00 0.00 92 1018.3
20260502000405 11 103 0.0 1.6 0.00 0.00 0.00 92 1018.3
20260501235905 11 113 0.0 1.6 0.00 0.00 0.00 92 1018.3
20260501235404 11 110 0.0 1.6 0.00 0.00 0.00 93 1018.4
20260501234904 11 110 0.0 3.2 0.00 0.00 0.00 93 1018.4
20260501234404 11 109 0.0 1.6 0.00 0.00 0.00 93 1018.4
20260501233905 11 109 0.0 1.6 0.00 0.00 0.00 93 1018.5
20260501233404 11 109 0.0 1.6 0.00 0.00 0.00 93 1018.5
20260501232905 11 82 0.0 1.6 0.00 0.00 0.00 93 1018.5
20260501232405 11 82 0.0 1.6 0.00 0.00 0.00 93 1018.6
20260501231905 11 82 0.0 0.0 0.00 0.00 0.00 92 1018.5
20260501231405 11 82 0.0 0.0 0.00 0.00 0.00 92 1018.5
20260501230905 11 82 0.0 0.0 0.00 0.00 0.00 92 1018.4
20260501230405 11 82 0.0 1.6 0.00 0.00 0.00 91 1018.4
20260501225905 11 82 0.0 0.0 0.00 0.00 0.00 91 1018.4
20260501225405 11 82 0.0 1.6 0.00 0.00 0.00 91 1018.5
20260501224904 11 82 0.0 1.6 0.00 0.00 0.00 91 1018.5
20260501224404 12 82 0.0 1.6 0.00 0.00 0.00 91 1018.5
20260501223904 12 80 0.0 1.6 0.00 0.00 0.00 91 1018.5
20260501222904 12 103 0.0 1.6 0.00 0.00 0.00 90 1018.5
20260501222412 12 120 0.0 3.2 0.00 0.00 0.00 90 1018.5
20260501221904 12 117 0.0 3.2 0.00 0.00 0.00 90 1018.5
20260501221404 12 109 0.0 1.6 0.00 0.00 0.00 89 1018.5
20260501220405 12 109 0.0 4.8 0.00 0.00 0.00 89 1018.4
20260501215904 12 126 0.0 1.6 0.00 0.00 0.00 89 1018.3
20260501215405 12 95 0.0 3.2 0.00 0.00 0.00 90 1018.3
20260501214904 13 99 0.0 0.0 0.00 0.00 0.00 91 1018.3
20260501214404 13 99 0.0 1.6 0.00 0.00 0.00 91 1018.4
20260501213905 13 48 0.0 1.6 0.00 0.00 0.00 92 1018.4
20260501213404 13 130 0.0 1.6 0.00 0.00 0.00 92 1018.4
20260501212905 13 124 0.0 1.6 0.00 0.00 0.00 92 1018.4
20260501212405 13 127 0.0 3.2 0.00 0.00 0.00 93 1018.4
20260501211904 13 120 0.0 1.6 0.00 0.00 0.00 93 1018.4
20260501210905 13 120 0.0 1.6 0.00 0.00 0.00 93 1018.4
20260501210405 13 120 0.0 3.2 0.00 0.00 0.00 93 1018.3
20260501205915 13 120 0.0 0.0 0.00 0.00 0.00 93 1018.4
20260501205415 13 120 0.0 1.6 0.00 0.00 0.00 93 1018.4
20260501204915 13 120 0.0 0.0 0.00 0.00 0.00 93 1018.3
20260501204404 13 120 0.0 0.0 0.00 0.00 0.00 93 1018.3
20260501203916 13 120 0.0 0.0 0.00 0.00 0.00 93 1018.3
20260501203405 13 120 0.0 0.0 0.00 0.00 0.00 93 1018.4
20260501202905 13 120 0.0 1.6 0.00 0.00 0.00 93 1018.4
20260501202404 13 120 0.0 1.6 0.00 0.00 0.00 93 1018.4
20260501201905 13 122 0.0 1.6 0.00 0.00 0.00 93 1018.4
20260501200904 13 122 0.0 1.6 0.00 0.00 0.00 92 1018.4
20260501200404 13 122 0.0 1.6 0.00 0.00 0.00 92 1018.4
20260501195905 13 122 0.0 1.6 0.00 0.00 0.00 92 1018.4
20260501195405 13 122 0.0 1.6 0.00 0.00 0.00 92 1018.4
20260501194905 13 122 0.0 1.6 0.00 0.00 0.00 92 1018.3
20260501194405 13 122 0.0 0.0 0.00 0.00 0.00 92 1018.3
20260501193904 13 122 0.0 1.6 0.00 0.00 0.00 92 1018.2
20260501193404 13 122 0.0 0.0 0.00 0.00 0.00 91 1018.3
20260501192904 13 122 0.0 1.6 0.00 0.00 0.00 91 1018.3
20260501192404 13 122 0.0 1.6 0.00 0.00 0.00 91 1018.3
20260501191904 13 122 0.0 1.6 0.00 0.00 0.00 91 1018.3
20260501191404 13 122 0.0 0.0 0.00 0.00 0.00 91 1018.3
20260501190904 13 122 0.0 1.6 0.00 0.00 0.00 91 1018.3
20260501190404 13 122 0.0 1.6 0.00 0.00 0.00 91 1018.2
20260501185905 13 122 0.0 1.6 0.00 0.00 0.00 90 1018.1
20260501185405 13 122 0.0 3.2 0.00 0.00 0.00 90 1018.2
20260501184905 13 113 0.0 3.2 0.00 0.00 0.00 90 1018.2
20260501184404 13 113 0.0 1.6 0.00 0.00 0.00 89 1018.1
20260501183905 13 113 0.0 1.6 0.00 0.00 0.00 88 1018.1
20260501183404 13 113 0.0 4.8 0.00 0.00 0.00 87 1018.1
20260501182904 13 134 0.0 3.2 0.00 0.00 0.00 87 1018.1
20260501182405 14 124 0.0 3.2 0.00 0.00 0.00 87 1018.0
20260501181905 14 98 0.0 4.8 0.00 0.00 0.00 87 1018.0
20260501181404 15 102 0.0 4.8 0.00 0.00 0.00 86 1018.0
20260501180404 15 117 1.6 4.8 0.00 0.00 0.00 85 1017.9
20260501175904 15 118 0.0 4.8 0.00 0.00 0.00 85 1017.8
20260501175404 15 108 1.6 4.8 0.00 0.00 0.00 85 1017.8
20260501174905 15 85 1.6 9.7 0.00 0.00 0.00 85 1017.8
20260501174404 15 118 0.0 4.8 0.00 0.00 0.00 85 1017.7
20260501173404 15 115 0.0 4.8 0.00 0.00 0.00 84 1017.6